Flag for Vatican City State Weather past 2 weeks in Vatican City, Vatican City State

57 °F

Passing clouds.

Feels Like: 57 °F
Forecast: 62 / 78 °F
Wind: 5 mph from Southeast

Location: Rome / Ciampino

Current Time: Oct 4, 2015 at 7:32:00 AM

Latest Report: Oct 4, 2015 at 6:50 AM

Visibility: N/A

Pressure: 30.18 "Hg

Humidity: 88%

Dew point: 54 °F

Location of Vatican CityLocation

Historic Weather in Vatican City — Graph


Vatican City temperature yesterday

Maximum temperature yesterday: 73 °F (at 1:20 PM)
Minimum temperature yesterday: 59 °F (at 6:50 AM)
Average temperature yesterday: 66 °F

Past Weeks' High & Low Weather Summary

High84 °F (Sep 19, 2:50 PM)100% (Sep 25, 3:20 AM)30.21 "Hg (Sep 25, 3:20 AM)
Low54 °F (Sep 30, 4:50 AM)34% (Sep 21, 2:50 PM)29.77 "Hg (Sep 23, 3:50 AM)
Average67 °F70%29.99 "Hg
* Reported Sep 19 5:50 AM — Oct 4 5:50 AM, Vatican City, Weather by CustomWeather, © 2015

Note: Actual official high and low records may vary slightly from our data, if they occured in-between our weather recording intervals... More about our weather records


Vatican City weather history for previous 24 hours

Time TempWeatherWind HumidityBarometerVisibility
5:50 AM
Sun, Oct 4
59 °FClear.2 mph82%30.18 "Hg10 mi
5:20 AM59 °FClear.2 mph77%30.18 "Hg10 mi
4:50 AM61 °FClear.1 mph72%30.18 "Hg10 mi
4:20 AM61 °FClear.5 mph72%30.18 "Hg10 mi
3:50 AM59 °FClear.7 mph77%30.18 "Hg10 mi
3:20 AM57 °FPassing clouds.5 mph82%30.21 "HgN/A
2:50 AM57 °FPassing clouds.3 mph82%30.21 "HgN/A
2:20 AM57 °FClear.1 mph82%30.21 "Hg10 mi
1:50 AM57 °FClear.1 mph82%30.21 "Hg10 mi
1:20 AM57 °FClear.2 mph82%30.21 "Hg10 mi
12:50 AM57 °FClear.3 mph88%30.21 "Hg10 mi
11:20 PM
Sat, Oct 3
61 °FClear.6 mph72%30.21 "Hg10 mi
10:50 PM61 °FClear.5 mph77%30.21 "Hg10 mi
10:20 PM61 °FClear.6 mph83%30.21 "Hg10 mi
9:50 PM61 °FClear.6 mph83%30.21 "Hg10 mi
9:20 PM61 °FClear.5 mph83%30.21 "Hg10 mi
8:50 PM63 °FClear.5 mph83%30.21 "Hg10 mi
8:20 PM63 °FClear.6 mph83%30.21 "Hg10 mi
7:50 PM64 °FClear.3 mph78%30.21 "Hg10 mi
7:20 PM66 °FSunny.3 mph73%30.21 "Hg10 mi
6:50 PM68 °FSunny.3 mph69%30.21 "Hg10 mi
6:20 PM70 °FSunny.2 mph64%30.18 "Hg10 mi
5:50 PM72 °FPassing clouds.6 mph57%30.18 "HgN/A
5:20 PM72 °FPassing clouds.6 mph57%30.18 "HgN/A
4:50 PM72 °FScattered clouds.6 mph57%30.18 "HgN/A
4:20 PM72 °FScattered clouds.7 mph57%30.18 "HgN/A
3:50 PM73 °FScattered clouds.7 mph53%30.21 "HgN/A
3:20 PM72 °FScattered clouds.6 mph61%30.18 "HgN/A
2:50 PM72 °FScattered clouds.7 mph57%30.18 "HgN/A
2:20 PM73 °FPartly sunny.7 mph53%30.21 "HgN/A
1:50 PM72 °FPartly sunny.7 mph57%30.21 "HgN/A
1:20 PM73 °FScattered clouds.6 mph53%30.21 "HgN/A
12:50 PM72 °FScattered clouds.6 mph57%30.21 "HgN/A
12:20 PM72 °FScattered clouds.7 mph53%30.21 "HgN/A
11:50 AM72 °FPassing clouds.7 mph61%30.21 "HgN/A
11:20 AM72 °FPassing clouds.6 mph61%30.21 "HgN/A
10:50 AM70 °FPassing clouds.5 mph69%30.21 "HgN/A
10:20 AM70 °FSunny.2 mph64%30.21 "Hg10 mi
9:50 AM68 °FSunny.2 mph64%30.21 "Hg10 mi
9:20 AM68 °FSunny.2 mph73%30.21 "Hg10 mi
8:50 AM66 °FSunny.2 mph83%30.21 "Hg10 mi
8:20 AM63 °FSunny.1 mph94%30.18 "Hg10 mi
7:50 AM59 °FClear.3 mph94%30.18 "Hg10 mi
7:20 AM59 °FPassing clouds.3 mph94%30.18 "HgN/A
Weather by CustomWeather, © 2015

See weather overviewHow to use our weather pages